Date String (YYYY-MM-DD hh:mm:ss) UTC,Instrument flags,absolute air pressure of the measurement (hPa),sample flow rate (lpm),inlet stack bypass flow (lpm),air temperature of the measurement (°C),ambient temperature measured by the external sensor (°C),aerosol sample conditioner tube jacket temperature (°C),OPC LED temperature (°C),internal box temperature (°C),relative humidity of the measurement (%),span deviation,mass concentration of particles derived from Lorenz-Mie calculation of OPC scattering (μg/m³),mass concentration of particles derived from Lorenz-Mie calculation of OPC scattering (μg/m³),mass concentration of particles derived from Lorenz-Mie calculation of OPC scattering (μg/m³)
DateTimeUTC,F1_M11,P_M11,Q1_M11,Q2_M11,T1_M11,T2_M11,T3_M11,T4_M11,T5_M11,U1_M11,ZSPAN_M11,X0_M11,X2_M11,X1_M11
2024-03-09 22:00:00,SystemResetWarning,0829.6,5.00,000.00,021.6,021.0,000.0,029.9,023.3,09.9,0000.0,0009.92,0005.92,0005.50
2024-03-09 22:01:00,SystemResetWarning,0829.6,5.00,000.00,021.6,021.0,000.0,029.9,023.3,10.1,0000.0,0010.39,0005.91,0005.48
2024-03-09 22:02:00,SystemResetWarning,0829.6,4.99,000.00,021.6,021.0,000.0,030.0,023.4,10.0,0000.0,0010.91,0005.91,0005.49
2024-03-09 22:03:00,SystemResetWarning,0829.6,4.99,000.00,021.6,021.0,000.0,030.0,023.4,09.6,0000.0,0010.89,0005.91,0005.49
2024-03-09 22:04:00,SystemResetWarning,0829.6,5.00,000.00,021.6,021.0,000.0,030.0,023.4,09.2,0000.0,0010.86,0005.92,0005.51
2024-03-09 22:05:00,SystemResetWarning,0829.6,5.01,000.00,021.6,021.0,000.0,030.0,023.4,09.0,0000.0,0010.69,0005.91,0005.52
2024-03-09 22:06:00,SystemResetWarning,0829.6,5.00,000.00,021.6,021.0,000.0,030.0,023.4,09.0,0000.0,0010.26,0005.90,0005.51
2024-03-09 22:07:00,SystemResetWarning,0829.5,5.00,000.00,021.6,021.0,000.0,030.0,023.4,08.7,0000.0,0010.22,0005.89,0005.51
2024-03-09 22:08:00,SystemResetWarning,0829.5,5.00,000.00,021.7,021.0,000.0,030.0,023.4,08.8,0000.2,0010.47,0005.92,0005.54
2024-03-09 22:09:00,SystemResetWarning,0829.5,5.00,000.00,021.7,021.0,000.0,030.0,023.4,08.5,0000.8,0011.27,0005.90,0005.54
2024-03-09 22:10:00,SystemResetWarning,0829.5,5.01,000.00,021.7,021.0,000.0,030.0,023.4,08.6,0000.0,0011.27,0005.94,0005.56
2024-03-09 22:11:00,SystemResetWarning,0829.5,5.01,000.00,021.7,021.0,000.0,030.0,023.4,08.5,0000.0,0011.18,0005.97,0005.57
2024-03-09 22:12:00,SystemResetWarning,0829.5,5.00,000.00,021.7,021.0,000.0,030.0,023.4,08.5,0000.0,0010.78,0005.98,0005.59
2024-03-09 22:13:00,SystemResetWarning,0829.4,4.99,000.00,021.7,021.0,000.0,030.0,023.4,08.4,0000.0,0010.24,0005.98,0005.60
2024-03-09 22:14:00,SystemResetWarning,0829.5,4.99,000.00,021.7,021.0,000.0,030.0,023.4,08.5,0000.0,0010.45,0006.01,0005.63
2024-03-09 22:15:00,SystemResetWarning,0829.4,5.00,000.00,021.7,021.0,000.0,030.0,023.4,08.5,0000.0,0010.54,0006.05,0005.64
2024-03-09 22:16:00,SystemResetWarning,0829.4,5.01,000.00,021.7,021.0,000.0,030.0,023.4,08.4,0000.0,0010.95,0006.06,0005.67
2024-03-09 22:17:00,SystemResetWarning,0829.4,5.01,000.00,021.7,021.0,000.0,030.1,023.4,08.2,0000.0,0011.15,0006.10,0005.69
2024-03-09 22:18:00,SystemResetWarning,0829.4,5.00,000.00,021.7,021.0,000.0,030.1,023.4,08.2,0000.0,0011.19,0006.12,0005.71
2024-03-09 22:19:00,SystemResetWarning,0829.4,4.99,000.00,021.7,021.0,000.0,030.1,023.4,08.2,0000.0,0011.07,0006.15,0005.73
2024-03-09 22:20:00,SystemResetWarning,0829.3,5.00,000.00,021.7,021.0,000.0,030.1,023.4,08.5,0000.0,0010.34,0006.16,0005.74
2024-03-09 22:21:00,SystemResetWarning,0829.3,5.00,000.00,021.7,021.0,000.0,030.1,023.4,08.2,0000.0,0010.10,0006.21,0005.76
2024-03-09 22:22:00,SystemResetWarning,0829.3,4.99,000.00,021.7,021.0,000.0,030.1,023.4,08.0,0000.0,0010.03,0006.18,0005.76
2024-03-09 22:23:00,SystemResetWarning,0829.3,5.00,000.00,021.7,021.0,000.0,030.1,023.4,08.0,0000.0,0010.12,0006.22,0005.76
2024-03-09 22:24:00,SystemResetWarning,0829.3,5.00,000.00,021.7,021.0,000.0,030.1,023.4,08.3,0000.0,0010.14,0006.23,0005.75
2024-03-09 22:25:00,SystemResetWarning,0829.3,5.00,000.00,021.7,021.0,000.0,030.1,023.4,08.0,0000.0,0010.10,0006.20,0005.73
2024-03-09 22:26:00,SystemResetWarning,0829.3,5.01,000.00,021.7,021.0,000.0,030.1,023.4,07.8,0000.0,0010.09,0006.15,0005.69
2024-03-09 22:27:00,SystemResetWarning,0829.4,5.01,000.00,021.7,021.0,000.0,030.1,023.4,08.0,0000.0,0009.68,0006.09,0005.63
2024-03-09 22:28:00,SystemResetWarning,0829.3,5.00,000.00,021.7,021.0,000.0,030.1,023.4,08.0,0000.0,0009.18,0005.98,0005.55
2024-03-09 22:29:00,SystemResetWarning,0829.3,5.00,000.00,021.7,021.0,000.0,030.1,023.4,07.9,0000.0,0009.08,0005.89,0005.47
2024-03-09 22:30:00,SystemResetWarning,0829.3,5.00,000.00,021.7,021.0,000.0,030.1,023.4,08.0,0000.0,0008.95,0005.76,0005.37
2024-03-09 22:31:00,SystemResetWarning,0829.4,5.00,000.00,021.7,021.0,000.0,030.1,023.5,08.2,0000.0,0009.19,0005.70,0005.29
2024-03-09 22:32:00,SystemResetWarning,0829.4,5.01,000.00,021.7,021.1,000.0,030.1,023.5,08.1,0000.0,0009.13,0005.59,0005.20
2024-03-09 22:33:00,SystemResetWarning,0829.3,5.01,000.00,021.7,021.1,000.0,030.1,023.5,08.5,0000.0,0009.26,0005.52,0005.12
2024-03-09 22:34:00,SystemResetWarning,0829.4,5.00,000.00,021.7,021.1,000.0,030.1,023.5,08.3,0000.0,0009.36,0005.41,0005.04
2024-03-09 22:35:00,SystemResetWarning,0829.3,4.99,000.00,021.7,021.1,000.0,030.1,023.5,08.0,0000.0,0009.70,0005.31,0004.94
2024-03-09 22:36:00,SystemResetWarning,0829.4,5.00,000.00,021.7,021.1,000.0,030.1,023.5,07.9,0000.0,0009.55,0005.24,0004.87
2024-03-09 22:37:00,SystemResetWarning,0829.4,5.00,000.00,021.7,021.1,000.0,030.1,023.5,07.9,0000.0,0009.36,0005.16,0004.79
2024-03-09 22:38:00,SystemResetWarning,0829.3,5.00,000.00,021.7,021.0,000.0,030.1,023.5,08.0,0000.0,0009.51,0005.10,0004.73
2024-03-09 22:39:00,SystemResetWarning,0829.3,5.00,000.00,021.7,021.1,000.0,030.1,023.5,07.8,0000.0,0009.97,0005.10,0004.71
2024-03-09 22:40:00,SystemResetWarning,0829.2,5.00,000.00,021.7,021.1,000.0,030.1,023.5,08.0,0000.0,0009.99,0005.08,0004.68
2024-03-09 22:41:00,SystemResetWarning,0829.2,5.00,000.00,021.7,021.1,000.0,030.1,023.5,08.0,0000.0,0010.03,0005.07,0004.65
2024-03-09 22:42:00,SystemResetWarning,0829.2,5.00,000.00,021.7,021.1,000.0,030.2,023.5,08.2,0000.0,0009.67,0005.02,0004.61
2024-03-09 22:43:00,SystemResetWarning,0829.2,4.99,000.00,021.8,021.1,000.0,030.2,023.5,07.7,0000.0,0009.61,0004.98,0004.56
2024-03-09 22:44:00,SystemResetWarning,0829.2,4.99,000.00,021.8,021.1,000.0,030.2,023.5,07.7,0000.0,0009.42,0004.94,0004.52
2024-03-09 22:45:00,SystemResetWarning,0829.2,5.01,000.00,021.8,021.1,000.0,030.2,023.5,07.5,0000.0,0009.27,0004.93,0004.50
2024-03-09 22:46:00,SystemResetWarning,0829.1,5.01,000.00,021.8,021.1,000.0,030.2,023.5,07.8,0000.0,0008.82,0004.90,0004.47
2024-03-09 22:47:00,SystemResetWarning,0829.1,5.00,000.00,021.8,021.1,000.0,030.2,023.5,08.1,0000.0,0008.77,0004.86,0004.43
2024-03-09 22:48:00,SystemResetWarning,0829.1,5.00,000.00,021.8,021.1,000.0,030.2,023.5,08.0,0000.0,0008.80,0004.85,0004.41
2024-03-09 22:49:00,SystemResetWarning,0829.1,5.00,000.00,021.8,021.2,000.0,030.2,023.6,07.9,0000.0,0008.69,0004.85,0004.38
2024-03-09 22:50:00,SystemResetWarning,0829.1,5.00,000.00,021.8,021.1,000.0,030.2,023.6,08.1,0000.0,0008.37,0004.82,0004.34
2024-03-09 22:51:00,SystemResetWarning,0829.1,5.00,000.00,021.8,021.1,000.0,030.2,023.6,08.0,0000.0,0008.65,0004.79,0004.31
2024-03-09 22:52:00,SystemResetWarning,0829.1,4.99,000.00,021.8,021.1,000.0,030.2,023.5,07.9,0000.0,0008.62,0004.77,0004.29
2024-03-09 22:53:00,SystemResetWarning,0829.1,4.99,000.00,021.8,021.1,000.0,030.2,023.5,07.8,0000.0,0008.54,0004.72,0004.25
2024-03-09 22:54:00,SystemResetWarning,0829.1,4.99,000.00,021.8,021.1,000.0,030.2,023.5,07.9,0000.0,0008.50,0004.67,0004.23
2024-03-09 22:55:00,SystemResetWarning,0829.1,5.01,000.00,021.8,021.1,000.0,030.2,023.5,07.9,0000.0,0008.67,0004.64,0004.18
2024-03-09 22:56:00,SystemResetWarning,0829.1,5.01,000.00,021.8,021.1,000.0,030.2,023.5,07.9,0000.0,0008.91,0004.62,0004.14
2024-03-09 22:57:00,SystemResetWarning,0829.1,5.01,000.00,021.8,021.1,000.0,030.2,023.5,07.7,0000.0,0009.49,0004.59,0004.10
2024-03-09 22:58:00,SystemResetWarning,0829.1,5.00,000.00,021.8,021.1,000.0,030.2,023.6,07.8,0000.0,0009.58,0004.59,0004.07
2024-03-09 22:59:00,SystemResetWarning,0829.1,5.00,000.00,021.8,021.1,000.0,030.2,023.6,08.1,0000.0,0009.57,0004.56,0004.03
